TimeIST,TemperatureF,Dew PointF,Humidity,Sea Level PressureIn,VisibilityMPH,Wind Direction,Wind SpeedMPH,Gust SpeedMPH,PrecipitationIn,Events,Conditions,WindDirDegrees,DateUTC
12:00 AM,71.6,50.0,46,30.01,1.6,NE,13.8,-,N/A,,Haze,40,2013-11-06 18:30:00
1:00 AM,69.8,51.8,53,30.01,1.2,NE,10.4,-,N/A,,Smoke,40,2013-11-06 19:30:00
2:00 AM,68.0,53.6,60,30.01,1.2,NE,11.5,-,N/A,,Smoke,40,2013-11-06 20:30:00
2:30 AM,68,52,47,29.96,1,NE,6.9,,,,Haze,50,2013-11-06 21:00:00
3:00 AM,66.2,53.6,64,29.98,1.2,ENE,11.5,-,N/A,,Smoke,70,2013-11-06 21:30:00
4:00 AM,66.2,53.6,64,29.98,1.2,East,11.5,-,N/A,,Smoke,80,2013-11-06 22:30:00
5:30 AM,65,56,65,29.96,1,ESE,11.5,,,,Haze,110,2013-11-07 00:00:00
6:00 AM,66.2,53.6,64,30.01,1.2,Variable,11.5,-,N/A,,Smoke,0,2013-11-07 00:30:00
8:00 AM,66.2,55.4,68,30.06,0.6,ENE,12.7,-,N/A,,Smoke,60,2013-11-07 02:30:00
8:30 AM,65,55,62,30.00,1,NE,11.5,,,,Smoke,50,2013-11-07 03:00:00
9:00 AM,66.2,55.4,68,30.06,0.7,ENE,16.1,-,N/A,,Smoke,70,2013-11-07 03:30:00
11:00 AM,69.8,53.6,56,30.06,0.9,East,12.7,-,N/A,,Smoke,100,2013-11-07 05:30:00
11:30 AM,72,56,47,29.96,1,ESE,11.5,,,,Smoke,110,2013-11-07 06:00:00
12:00 PM,71.6,53.6,53,30.04,0.9,East,13.8,-,N/A,,Smoke,100,2013-11-07 06:30:00
1:00 PM,75.2,51.8,44,30.04,1.1,East,13.8,-,N/A,,Haze,100,2013-11-07 07:30:00
2:00 PM,75.2,53.6,47,29.98,1.2,East,11.5,-,N/A,,Haze,90,2013-11-07 08:30:00
3:00 PM,77.0,53.6,44,29.98,1.1,ESE,8.1,-,N/A,,Haze,110,2013-11-07 09:30:00
4:00 PM,75.2,55.4,50,29.95,1.1,East,8.1,-,N/A,,Haze,80,2013-11-07 10:30:00
5:00 PM,73.4,55.4,53,29.95,1.1,East,5.8,-,N/A,,Smoke,100,2013-11-07 11:30:00
5:30 PM,72,57,49,29.91,1,East,4.6,,,,Smoke,90,2013-11-07 12:00:00
6:00 PM,71.6,55.4,57,29.98,1.1,ENE,4.6,-,N/A,,Smoke,70,2013-11-07 12:30:00
7:00 PM,69.8,55.4,60,29.98,1.1,NE,4.6,-,N/A,,Smoke,50,2013-11-07 13:30:00
7:30 PM,69.8,55.4,60,30.01,1.0,ENE,4.6,-,N/A,,Smoke,60,2013-11-07 14:00:00
8:00 PM,69.8,55.4,60,30.01,1.0,ENE,5.8,-,N/A,,Smoke,60,2013-11-07 14:30:00
8:30 PM,69.8,55.4,60,30.01,1.0,ENE,3.5,-,N/A,,Smoke,60,2013-11-07 15:00:00
10:00 PM,69.8,55.4,60,30.04,1.0,ENE,5.8,-,N/A,,Smoke,60,2013-11-07 16:30:00
11:00 PM,69.8,55.4,60,30.01,1.0,ENE,5.8,-,N/A,,Smoke,70,2013-11-07 17:30:00
11:30 PM,69,54,50,29.97,1,East,4.6,,,,Smoke,90,2013-11-07 18:00:00